Regional Weather Roundup
Issued by NWS

Home | Current Version | Previous Version | Graphics & Text | Print | Product List | Glossary On
Versions: 1 2 3 4 5 6 7 8 9 10 11 12 13 14 15 16 17 18 19 20 21 22 23 24 25 26 27 28 29 30 31 32 33 34 35 36 37 38 39 40 41 42 43 44 45 46 47 48 49 50
000
ASUS45 KTFX 201610
RWRMT
MONTANA REGIONAL WEATHER ROUNDUP
NATIONAL WEATHER SERVICE GREAT FALLS MT
1000 AM MDT THU JUL 20 2017

NOTE: "FAIR" INDICATES FEW OR NO CLOUDS BELOW 12000 FEET WITH NO
SIGNIFICANT WEATHER AND/OR OBSTRUCTIONS TO VISIBILITY.

MTZ001>007-043-201700-
WEST OF THE DIVIDE

CITY           SKY/WX    TMP DP  RH WIND       PRES   REMARKS
KALISPELL      SUNNY     73  44  35 CALM      29.97S
MISSOULA       SUNNY     71  43  36 VRB3      30.01S
BUTTE          SUNNY     72  43  35 CALM      30.11F
MULLAN PASS    SUNNY     56  39  53 VRB5      30.16R
ANACONDA         N/A     81  37  21 S8G17     30.05F
DEER LODGE       N/A     70  46  43 CALM      30.06F
EUREKA           N/A     75  43  31 MISG      29.97F
HAMILTON         N/A     73  45  35 CALM      30.00S
LIBBY            N/A     70  45  40 NW3       29.97F
$$

MTZ008-052>055-201700-
SOUTHWEST MONTANA

CITY           SKY/WX    TMP DP  RH WIND       PRES   REMARKS
BOZEMAN        SUNNY     74  49  41 CALM      30.05F
DILLON         SUNNY     69  43  38 SW7       30.09F HAZE
W YELLOWSTONE  PTSUNNY   59  41  51 S22       30.26F
ENNIS          SUNNY     81  27  13 S7        30.15S
THREE FORKS      N/A     74  45  35 CALM      30.03F
$$

MTZ009-010-012-014-046-048-049-054-201700-
EAST SLOPES AND CENTRAL MONTANA

CITY           SKY/WX    TMP DP  RH WIND       PRES   REMARKS
CUT BANK       MOSUNNY   73  36  25 SE9       29.96F
GREAT FALLS    SUNNY     75  35  23 SW10      29.96S
HELENA         SUNNY     75  42  30 VRB6      29.99F
CHOTEAU          N/A     77  34  20 VRB5      29.98S
$$

MTZ011-013-016-021-045-047-050-051-201700-
NORTH CENTRAL MONTANA

CITY           SKY/WX    TMP DP  RH WIND       PRES   REMARKS
HAVRE          SUNNY     82  42  24 E9        29.90F
LEWISTOWN      SUNNY     78  38  23 VRB5      29.98F
N BAR RANCH      N/A     79  41  25 SE6       30.02F
CHINOOK          N/A     73  48  40 E10       29.90F
$$

MTZ017>020-022>027-061-062-201700-
NORTHEAST MONTANA

CITY           SKY/WX    TMP DP  RH WIND       PRES   REMARKS
SIDNEY         SUNNY     80  60  50 NE3       29.94F
WOLF POINT     MOSUNNY   79  57  46 E12       29.93F
MALTA          MOSUNNY   75  54  46 E13       29.90F
PLENTYWOOD       N/A     73  57  56 CALM      29.96F
$$

MTZ028>42-056>058-201700-
SOUTHCENTRAL AND SOUTHEAST MONTANA

CITY           SKY/WX    TMP DP  RH WIND       PRES   REMARKS
BAKER          CLOUDY    88  61  40 S21G28    29.99F
BILLINGS       MOSUNNY   76  48  37 S5        29.96F
LIVINGSTON     SUNNY     82  41  23 W14G21    30.04F
MILES CITY     SUNNY     91  54  28 S17G26    29.89F
BIG TIMBER     SUNNY     81  37  21 W13       30.05F
FORSYTH          N/A     90  54  29 CALM      29.88F
LAUREL           N/A     82  45  27 SW10      29.96F
$$

REGIONAL REPORTS...DAKOTAS

CITY           SKY/WX    TMP DP  RH WIND       PRES   REMARKS
WILLISTON        N/A     82  61  48 VRB5      29.95F
MINOT          SUNNY     80  62  54 SE14      29.98F
DICKINSON      SUNNY     84  63  49 S18       29.98F
BEACH            N/A     82  66  57 S16       30.00F
CROSBY           N/A     77  59  53 E12       29.98S
TIOGA            N/A     79  61  53 VRB5      29.99F
WATFORD CITY     N/A     79  61  53 SE8       29.96S
BISMARCK       SUNNY     81  67  62 VRB5      30.03S
GRAND FORKS    PTSUNNY   71  62  73 N7        30.03R
FARGO          SUNNY     78  62  57 NE5       30.02S
BUFFALO SD       N/A     83  65  54 S22       29.95F
RAPID CITY     SUNNY     85  67  54 SE13      30.07F
$$

REGIONAL REPORTS...WYOMING/IDAHO/WASHINGTON

CITY           SKY/WX    TMP DP  RH WIND       PRES   REMARKS
GILLETTE       SUNNY     87  54  32 S20G28    30.06F
SHERIDAN       SUNNY     82  55  39 CALM      29.99F
BUFFALO WY     SUNNY     84  53  34 SE14      30.09F
YELLOWSTONE LA   N/A     66  46  48 CALM      30.35F
IDAHO FALLS    CLOUDY    79  56  45 SW7       30.12R
BOISE          SUNNY     74  45  35 VRB3      30.05R
SPOKANE        MOSUNNY   67  46  47 S16G25    30.03R
$$

REGIONAL REPORTS...ALBERTA

CITY           SKY/WX    TMP DP  RH WIND       PRES   REMARKS
EDMONTON       SUNNY     64  57  77 E3        29.88F
CALGARY        CLOUDY    61  43  51 SW10      29.91S SMOKE
LETHBRIDGE     MOSUNNY   79  43  27 NW9       29.93R
MEDICINE HAT   MOSUNNY   72  48  43 W6        29.91S
WATERTON GATE    N/A     73  46  38 NE6         N/A
ONEFOUR          N/A     77  37  24 SE9         N/A
$$

REGIONAL REPORTS...SASKATCHEWAN

CITY           SKY/WX    TMP DP  RH WIND       PRES   REMARKS
SWIFT CURRENT  SUNNY     75  54  46 SE13      29.95S
REGINA         MOSUNNY   73  52  46 SE15      29.96F
SASKATOON      PTSUNNY   72  55  56 VRB2      29.96S
CYPRESS HILLS    N/A     75  36  23 S10         N/A
VAL MARIE        N/A     75  45  33 E6          N/A
ROCKGLEN         N/A     68  54  60 E5          N/A
$$



USA.gov is the U.S. government's official web portal to all federal, state and local government web resources and services.